Regional Weather Roundup
Issued by NWS Charleston, SC

Current Version | Previous Version | Graphics & Text | Print | Product List | Glossary On
Versions: 1 2 3 4 5 6 7 8 9 10 11 12 13 14 15 16 17 18 19 20 21 22 23 24 25 26 27 28 29 30 31 32 33 34 35 36 37 38 39 40 41 42 43 44 45 46 47 48 49 50
000
ASUS42 KCHS 011010
RWRCHS

REGIONAL WEATHER ROUNDUP
NATIONAL WEATHER SERVICE CHARLESTON SC
600 AM EDT MON SEP 01 2014

NOTE: "FAIR" INDICATES FEW OR NO CLOUDS BELOW 12,000 FEET WITH NO
SIGNIFICANT WEATHER AND/OR OBSTRUCTIONS TO VISIBILITY.

NOT ALL STATIONS ARE QUALITY CONTROLLED BY THE NATIONAL
WEATHER SERVICE. USE DATA WITH CAUTION...ESPECIALLY
DEWPOINT OBSERVATIONS.

SCZ027-030-031-034>040-042>050-011100-
...SOUTH CAROLINA...

CITY           SKY/WX    TMP DP  RH WIND       PRES   REMARKS
N CHARLESTON   PTCLDY    77  74  90 CALM      30.08S
WATERFRONT PRK   N/A     82 N/A N/A CALM        N/A
FORT JOHNSON   NOT AVBL
MOUNT PLEASANT FAIR      75  75 100 CALM      30.09R FOG
JOHNS ISLAND   SUNNY     77  77 100 CALM      30.09R
PINOPOLIS        N/A     81  75  83 MISG      30.01R
MONCKS CORNER    N/A     75  75 100 CALM      30.09R
SUMMERVILLE    FAIR      73  73 100 CALM      30.10R
BEAUFORT MCAS  CLEAR     77  74  90 NW5       30.09R
BEAUFORT ARPT  FAIR      79  77  94 W6        30.08R
HILTON HEAD IS NOT AVBL
GEORGETOWN     NOT AVBL
WALTERBORO     SUNNY     73 N/A N/A CALM      30.10R
ORANGEBURG     CLEAR     73  71  93 CALM      30.10R
BARNWELL       FAIR      73  72  94 CALM      30.10R FOG
AIKEN          FAIR      72  72 100 CALM      30.14R FOG
MANNING        FAIR      75 N/A N/A CALM      30.10R
KINGSTREE      NOT AVBL
COLUMBIA       CLEAR     74  71  91 CALM      30.10R
SUMTER         CLEAR     74  73  96 CALM      30.09R
FLORENCE       CLEAR     74  72  93 CALM      30.10R
MYRTLE BEACH   CLEAR     77  73  88 SW3       30.10R
N MYRTLE BEACH CLEAR     78  75  90 SW3       30.10R

$$

GAZ063-065-086>088-099>101-113>116-118-119-134-136>141-150-011100-
...GEORGIA...

CITY           SKY/WX    TMP DP  RH WIND       PRES   REMARKS
SAVANNAH ARPT  CLEAR     75  71  87 CALM      30.09R
HUNTER AAF     CLEAR     73  72  96 CALM      30.07R
FORT STEWART   CLEAR     70  70 100 CALM      30.08R
STATESBORO     NOT AVBL
SYLVANIA       SUNNY     64  64 100 CALM      30.10R FOG
CLAXTON        NOT AVBL
THOMSON        PTCLDY    73  73 100 CALM      30.15R
AUGUSTA-BUSH   PTCLDY    71  70  96 CALM      30.10R FOG
AUGUSTA-DANIEL PTCLDY    75  72  90 CALM      30.11R
SWAINSBORO     FAIR      73  73 100 CALM      30.10R
VIDALIA          N/A     72  72 100 CALM      30.09R
ALMA           PTCLDY    73  72  96 CALM      30.08R FOG
WAYCROSS       PTCLDY    76  76 100 CALM      30.08R
JESUP          FOG       73  72  94 CALM      30.09R VSB 3/4
BRUNSWICK      CLEAR     73  72  94 CALM      30.08S
SAINT SIMONS   CLEAR     76  72  87 CALM      30.08R

$$

SCZ027-028-034-036>038-045-046-048>050-GAZ119-141-011100-
...LAKE AND SUPPLEMENTAL COASTAL OBSERVATIONS...

STATION/POSITION TIME  TEMP    WIND        PRES    WAVE   SWELL
                       AIR SEA DIR/SP/G            HT/PER HT/PER/DIR
                 (UTC) (F)     (DEG/KT/KT) (MB)    (FT/S) (FT/S/D)
UPR LAKE MARION  NOT AVBL
WINYAH BAY       0900   78     260/  1     1018.0S
LAKE MURRAY      0900   77     270/  4/  7 1018.6R
ACE BASIN NERRS  0900   77        CALM     1018.0S
FORT PULASKI     1000   78     290/  8/  9 1018.8S
SAPELO ISLAND    0900   78     270/  4     1019.0R

$$

ANZ835-935-AMZ111-154-330-350-352-354-374-450-454-472-011100-
...C-MAN AND BUOY OBSERVATIONS...

STATION/POSITION TIME  TEMP    WIND        PRES    WAVE   SWELL
                       AIR SEA DIR/SP/G            HT/PER HT/PER/DIR
                 (UTC) (F)     (DEG/KT/KT) (MB)    (FT/S) (FT/S/D)
FOLLY BEACH CMAN 0900   82     250/  4/  6 1018.7R
BUOY 41004       1000   82 83  220/  8/ 10 1018.4R   3/ 9   3/ 9
BUOY 41008       1000   83 84  210/ 10/ 12 1018.4R   2/ 8   2/100/ 8
5E ST. MARYS GA  1000      84                N/A     2/ 9
FRYING PAN BUOY  NOT AVBL
BUOY 41025       1000   81     200/ 16/ 17 1019.1R   3/ 9   2/100/ 9
CAPE LOOKOUT NC  0900   80     210/  8/ 12 1019.1R
BUOY 41002       0940   80 83  180/  4/  6 1021.0R   3/ 9   3/130/ 9
BUOY 41010       1000   82 84  140/  6/  8 1019.1R   3/ 9   3/110/ 9
BUOY 41012       NOT AVBL
ST AUGUSTINE FL  1000   76     270/  2/  3 1019.2R
CAPERS NEARSHORE 0900   82     240/ 10/ 12   N/A
FRIPP NEARSHORE  NOT AVBL


$$


USA.gov is the U.S. government's official web portal to all federal, state and local government web resources and services.